TimeCDT,TemperatureF,Dew PointF,Humidity,Sea Level PressureIn,VisibilityMPH,Wind Direction,Wind SpeedMPH,Gust SpeedMPH,PrecipitationIn,Events,Conditions,WindDirDegrees,DateUTC
12:56 AM,79.0,64.9,62,29.87,10.0,South,17.3,23.0,N/A,,Clear,190,2013-07-19 05:56:00
1:56 AM,78.1,64.0,62,29.87,10.0,SSW,16.1,23.0,N/A,,Clear,200,2013-07-19 06:56:00
2:56 AM,78.1,63.0,60,29.86,10.0,SSW,17.3,21.9,N/A,,Clear,210,2013-07-19 07:56:00
3:56 AM,78.1,63.0,60,29.86,10.0,SW,11.5,-,N/A,,Mostly Cloudy,220,2013-07-19 08:56:00
4:56 AM,78.1,63.0,60,29.85,10.0,SW,10.4,-,N/A,,Partly Cloudy,230,2013-07-19 09:56:00
5:56 AM,75.9,64.0,67,29.86,10.0,WSW,3.5,-,N/A,,Mostly Cloudy,250,2013-07-19 10:56:00
6:41 AM,75.2,64.4,69,29.91,10.0,SSW,8.1,-,N/A,Thunderstorm,Thunderstorm,200,2013-07-19 11:41:00
6:56 AM,75.0,64.0,69,29.87,10.0,SSW,5.8,-,N/A,,Clear,200,2013-07-19 11:56:00
7:56 AM,77.0,64.9,66,29.89,10.0,SW,9.2,-,N/A,,Partly Cloudy,230,2013-07-19 12:56:00
8:56 AM,81.0,64.9,58,29.91,10.0,Calm,Calm,-,N/A,,Clear,0,2013-07-19 13:56:00
9:56 AM,84.0,66.0,55,29.92,10.0,NNE,4.6,-,N/A,,Clear,20,2013-07-19 14:56:00
10:56 AM,90.0,60.1,37,29.91,10.0,NNE,12.7,-,N/A,,Clear,30,2013-07-19 15:56:00
11:56 AM,91.9,55.0,29,29.92,10.0,NNE,11.5,-,N/A,,Clear,30,2013-07-19 16:56:00
12:56 PM,90.0,63.0,40,29.93,10.0,North,9.2,17.3,N/A,,Clear,10,2013-07-19 17:56:00
1:56 PM,91.9,62.1,37,29.93,10.0,NNW,16.1,20.7,N/A,,Clear,340,2013-07-19 18:56:00
2:56 PM,91.0,57.0,32,29.92,10.0,Variable,5.8,-,N/A,,Clear,0,2013-07-19 19:56:00
3:56 PM,91.0,54.0,28,29.92,10.0,NNW,9.2,16.1,N/A,,Clear,340,2013-07-19 20:56:00
4:56 PM,91.0,52.0,26,29.91,10.0,North,10.4,-,N/A,,Clear,350,2013-07-19 21:56:00
5:56 PM,90.0,48.0,24,29.90,10.0,North,6.9,-,N/A,,Clear,350,2013-07-19 22:56:00
6:56 PM,88.0,51.1,28,29.90,10.0,NNW,8.1,-,N/A,,Clear,340,2013-07-19 23:56:00
7:56 PM,84.0,50.0,31,29.90,10.0,North,8.1,-,N/A,,Clear,360,2013-07-20 00:56:00
8:56 PM,79.0,52.0,39,29.91,10.0,Calm,Calm,-,N/A,,Clear,0,2013-07-20 01:56:00
9:56 PM,73.0,55.9,55,29.92,9.0,Calm,Calm,-,N/A,,Clear,0,2013-07-20 02:56:00
10:56 PM,70.0,57.0,63,29.92,10.0,NNW,3.5,-,N/A,,Clear,340,2013-07-20 03:56:00
11:56 PM,63.0,57.0,81,29.95,10.0,Calm,Calm,-,N/A,,Clear,0,2013-07-20 04:56:00